Weather History for Greenville, AL

Change the Weather History Date:

Monday, January 24, 2011

  Actual Average Record
Temperature  
Mean Temperature 42 °F -  
Max Temperature 57 °F 57 °F 80 °F (1937)
Min Temperature 27 °F 38 °F 5 °F (1963)
Degree Days  
Heating Degree Days 23    
Moisture  
Dew Point 27 °F    
Average Humidity 54    
Maximum Humidity 89    
Minimum Humidity 28    
Precipitation  
Precipitation 0.00 in - - ()
Sea Level Pressure  
Sea Level Pressure 30.16 in    
Wind  
Wind Speed 3 mph (ESE)    
Max Wind Speed 9 mph    
Max Gust Speed -    
Visibility 10 miles    
Events Rain    
Averages and records for this station are not official NWS values.
T = Trace of Precipitation, MM = Missing Value Source: NWS Daily Summary

Daily Weather History Graph

Daily Weather History Graph

Search for Another Location

Airport:

Trip Planner

Search our weather history database for the weather conditions in past years. The results will help you decide how hot, cold, wet, or windy it might be!

Date:

Astronomy

Jan. 24, 2011 Rise Set
Actual Time 6:44 AM CST 5:13 PM CST
Civil Twilight 6:18 AM CST 5:39 PM CST
Nautical Twilight 5:48 AM CST 6:08 PM CST
Astronomical Twilight 5:19 AM CST 6:37 PM CST
Moon 10:56 PM CST (1/24) 9:37 AM CST (1/24)
Length of Visible Light 11h 20m
Length of Day
10h 28m
Waning Gibbous, 70% of the Moon is Illuminated
Jan 24
Waning Gibbous
Jan 26
Last Quarter
Feb 2
New
Feb 11
First Quarter
Feb 18
Full

Hourly Weather History & Observations

Time (CST) Temp. Windchill Dew Point Humidity Pressure Visibility Wind Dir Wind Speed Gust Speed Precip Events Conditions
12:56 AM 28.9 °F - 24.1 °F 82% 30.18 in 10.0 mi Calm Calm - N/A   Clear
1:56 AM 27.0 °F - 24.1 °F 89% 30.17 in 10.0 mi Calm Calm - N/A   Clear
2:56 AM 27.0 °F - 23.0 °F 85% 30.17 in 10.0 mi Calm Calm - N/A   Clear
3:56 AM 27.0 °F - 23.0 °F 85% 30.17 in 10.0 mi Calm Calm - N/A   Clear
4:56 AM 28.9 °F 25.2 °F 24.1 °F 82% 30.15 in 10.0 mi East 3.5 mph - N/A   Clear
5:56 AM 32.0 °F 27.5 °F 25.0 °F 75% 30.17 in 10.0 mi SE 4.6 mph - N/A   Clear
6:56 AM 30.9 °F - 26.1 °F 82% 30.19 in 10.0 mi Calm Calm - N/A   Partly Cloudy
7:56 AM 35.1 °F - 30.0 °F 82% 30.20 in 10.0 mi Calm Calm - N/A   Partly Cloudy
8:56 AM 44.1 °F 40.1 °F 28.0 °F 53% 30.21 in 10.0 mi SE 6.9 mph - N/A   Clear
9:56 AM 50.0 °F - 27.0 °F 41% 30.22 in 10.0 mi ESE 9.2 mph - N/A   Clear
10:56 AM 54.0 °F - 24.1 °F 31% 30.21 in 10.0 mi SSE 9.2 mph - 0.00 in Rain Light Rain
11:56 AM 55.9 °F - 24.1 °F 29% 30.18 in 10.0 mi East 6.9 mph - 0.00 in   Mostly Cloudy
12:56 PM 57.0 °F - 25.0 °F 29% 30.16 in 10.0 mi Variable 4.6 mph - N/A   Mostly Cloudy
1:56 PM 57.9 °F - 25.0 °F 28% 30.14 in 10.0 mi East 5.8 mph - N/A   Clear
2:56 PM 57.9 °F - 27.0 °F 31% 30.13 in 10.0 mi Variable 3.5 mph - N/A   Clear
3:56 PM 57.0 °F - 28.0 °F 33% 30.14 in 10.0 mi ESE 4.6 mph - N/A   Clear
4:56 PM 54.0 °F - 28.9 °F 38% 30.14 in 10.0 mi ESE 3.5 mph - N/A   Clear
5:56 PM 53.1 °F - 30.0 °F 41% 30.13 in 10.0 mi ESE 3.5 mph - N/A   Clear
6:56 PM 52.0 °F - 30.0 °F 43% 30.14 in 10.0 mi ESE 4.6 mph - N/A   Clear
7:56 PM 52.0 °F - 28.9 °F 41% 30.14 in 10.0 mi ESE 3.5 mph - N/A   Clear
8:56 PM 52.0 °F - 28.0 °F 40% 30.14 in 10.0 mi Calm Calm - N/A   Clear
9:56 PM 51.1 °F - 28.9 °F 43% 30.11 in 10.0 mi East 6.9 mph - 0.00 in Rain Light Rain
10:56 PM 48.9 °F - 33.1 °F 54% 30.09 in 10.0 mi East 5.8 mph - 0.00 in Rain Light Rain
11:56 PM 50.0 °F - 32.0 °F 50% 30.10 in 10.0 mi Calm Calm - 0.00 in Rain Light Rain